NI4CE-11 Weather Reports


time (UTC)temp
F
wind
direction
speed
knots
gust
knots
rain 1hr
in
rain 24hr
in
rain mn
in
humidity
%
barometer
mb
20260504150953 78 358 0.0 0.0 0.00 0.00 0.00 100 1017.6
20260504150453 77 358 0.0 0.0 0.00 0.00 0.00 100 1017.5
20260504140954 75 358 0.0 0.0 0.00 0.00 0.00 100 1017.3
20260504140809 75 358 0.0 0.0 0.00 0.00 0.00 100 1017.3
20260504140454 75 358 0.0 0.0 0.00 0.00 0.00 100 1017.3
20260504130454 71 358 0.0 0.0 0.00 0.00 0.00 100 1017.1
20260504130300 71 358 0.0 0.0 0.00 0.00 0.00 100 1017.1
20260504110454 63 358 0.0 0.0 0.00 0.00 0.00 100 1016.4
20260504100455 63 358 0.0 0.0 0.00 0.00 0.00 100 1016.0
20260504081955 66 358 0.0 0.0 0.00 0.01 0.00 100 1015.8
20260504081455 66 358 0.0 0.0 0.00 0.01 0.00 100 1015.8
20260504080955 66 358 0.0 0.0 0.00 0.01 0.00 100 1015.8
20260504080455 67 358 0.0 0.0 0.00 0.05 0.00 100 1015.8
20260504060138 67 358 0.0 0.0 0.00 0.05 0.00 100 1016.5
20260504050456 66 358 0.0 0.0 0.00 0.10 0.00 100 1016.6
20260504045956 66 358 0.0 0.0 0.00 0.10 0.00 100 1016.7
20260504045456 66 358 0.0 0.0 0.00 0.10 0.00 100 1017.0
20260504044956 66 358 0.0 0.0 0.00 0.10 0.00 100 1017.1
20260504044456 67 358 0.0 0.0 0.00 0.10 0.00 100 1017.2
20260504044046 68 358 0.0 0.0 0.00 0.10 0.10 100 1017.6
20260504043956 66 358 0.0 0.0 0.00 0.10 0.00 100 1017.3
20260504043456 67 358 0.0 0.0 0.00 0.10 0.00 100 1017.4
20260504043344 69 358 0.0 0.0 0.00 0.10 0.10 100 1017.5
20260504042956 69 358 0.0 0.0 0.00 0.10 0.10 100 1017.5
20260504042456 68 358 0.0 0.0 0.00 0.10 0.10 100 1017.6
20260504042144 71 358 0.0 0.0 0.00 0.10 0.10 100 1017.7
20260504041956 70 358 0.0 0.0 0.00 0.10 0.10 100 1017.6
20260504041456 71 358 0.0 0.0 0.00 0.10 0.10 100 1017.7
20260504041221 68 358 0.0 0.0 0.00 0.10 0.10 100 1017.7
20260504040956 68 358 0.0 0.0 0.00 0.10 0.10 100 1017.7
20260504040456 69 358 0.0 0.0 0.00 0.12 0.10 100 1017.7
20260504040054 71 358 0.0 0.0 0.00 0.12 0.10 100 1017.8
20260504035956 70 358 0.0 0.0 0.00 0.12 0.10 100 1017.7
20260504035456 68 358 0.0 0.0 0.00 0.12 0.10 100 1017.7
20260504034956 71 358 0.0 0.0 0.00 0.12 0.10 100 1017.8
20260504034812 68 358 0.0 0.0 0.00 0.12 0.10 100 1017.6
20260504034456 70 358 0.0 0.0 0.00 0.12 0.10 100 1017.7
20260504033956 68 358 0.0 0.0 0.00 0.12 0.10 100 1017.6
20260504033949 69 358 0.0 0.0 0.00 0.12 0.10 100 1017.5
20260504033456 69 358 0.0 0.0 0.00 0.12 0.10 100 1017.7
20260504032956 69 358 0.0 0.0 0.00 0.12 0.10 100 1017.5
20260504032638 70 358 0.0 0.0 0.00 0.12 0.10 100 1017.5
20260504032456 69 358 0.0 0.0 0.00 0.12 0.10 100 1017.6
20260504031956 70 358 0.0 0.0 0.00 0.12 0.10 100 1017.5
20260504031456 69 358 0.0 0.0 0.00 0.12 0.10 100 1017.5
20260504030956 69 358 0.0 0.0 0.00 0.12 0.10 100 1017.4
20260504030456 71 358 0.0 0.0 0.00 0.23 0.10 100 1017.4
20260504025956 71 358 0.0 0.0 0.00 0.23 0.10 100 1017.5
20260504025456 69 358 0.0 0.0 0.00 0.23 0.10 100 1017.5
20260504024956 70 358 0.0 0.0 0.00 0.23 0.10 100 1017.4
20260504024612 69 358 0.0 0.0 0.00 0.23 0.10 100 1017.2
20260504024456 69 358 0.0 0.0 0.00 0.23 0.10 100 1017.3
20260504023956 69 358 0.0 0.0 0.00 0.23 0.10 100 1017.4
20260504023456 71 358 0.0 0.0 0.00 0.23 0.10 100 1017.5
20260504023342 70 358 0.0 0.0 0.00 0.23 0.10 100 1017.3
20260504022956 70 358 0.0 0.0 0.00 0.23 0.10 100 1017.3
20260504022731 70 358 0.0 0.0 0.00 0.23 0.10 100 1017.2
20260504022456 69 358 0.0 0.0 0.00 0.23 0.10 100 1017.2
20260504021956 70 358 0.0 0.0 0.00 0.23 0.10 100 1017.2
20260504021456 70 358 0.0 0.0 0.00 0.23 0.10 100 1017.0
20260504021339 70 358 0.0 0.0 0.00 0.23 0.10 100 1017.1
20260504021223 70 358 0.0 0.0 0.00 0.23 0.10 100 1017.1
20260504020956 70 358 0.0 0.0 0.00 0.23 0.10 100 1017.1
20260504020919 71 358 0.0 0.0 0.00 0.23 0.10 100 1016.9
20260504020456 70 358 0.0 0.0 0.00 0.23 0.10 100 1017.0
20260504015956 71 358 0.0 0.0 0.00 0.23 0.10 100 1016.9
20260504015726 70 358 0.0 0.0 0.00 0.23 0.10 100 1016.9
20260504015601 70 358 0.0 0.0 0.00 0.23 0.10 100 1016.9
20260504015456 70 358 0.0 0.0 0.00 0.23 0.10 100 1016.9
20260504014957 70 358 0.0 0.0 0.00 0.23 0.10 100 1016.9
20260504014815 70 358 0.0 0.0 0.00 0.23 0.10 100 1016.9
20260504014456 71 358 0.0 0.0 0.00 0.23 0.10 100 1017.0
20260504013957 70 358 0.0 0.0 0.00 0.23 0.10 100 1016.9
20260504013457 71 358 0.0 0.0 0.00 0.23 0.10 100 1016.8
20260504013130 71 358 0.0 0.0 0.00 0.23 0.10 100 1016.8
20260504012957 71 358 0.0 0.0 0.00 0.23 0.10 100 1016.8
20260504012808 71 358 0.0 0.0 0.00 0.23 0.10 100 1016.6
20260504012457 71 358 0.0 0.0 0.00 0.23 0.10 100 1016.7
20260504011957 71 358 0.0 0.0 0.00 0.23 0.10 100 1016.6
20260504011457 71 358 0.0 0.0 0.00 0.23 0.10 100 1016.6
20260504010957 71 358 0.0 0.0 0.00 0.23 0.10 100 1016.6
20260504010457 71 358 0.0 0.0 0.00 0.23 0.10 100 1016.5
20260504005957 71 358 0.0 0.0 0.00 0.23 0.10 100 1016.4
20260504005457 71 358 0.0 0.0 0.00 0.23 0.10 100 1016.4
20260504005055 74 358 0.0 0.0 0.00 0.23 0.10 100 1015.9
20260504004957 71 358 0.0 0.0 0.00 0.23 0.10 100 1016.3
20260504004457 73 358 0.0 0.0 0.00 0.23 0.10 100 1016.2
20260504004444 72 358 0.0 0.0 0.00 0.23 0.10 100 1016.2
20260504003957 72 358 0.0 0.0 0.00 0.23 0.10 100 1016.2
20260504003457 72 358 0.0 0.0 0.00 0.23 0.10 100 1016.1
20260504002957 74 358 0.0 0.0 0.00 0.23 0.10 100 1016.0
20260504002500 72 358 0.0 0.0 0.00 0.23 0.10 100 1015.9
20260504002457 74 358 0.0 0.0 0.00 0.23 0.10 100 1015.9
20260504002436 75 358 0.0 0.0 0.00 0.23 0.10 100 1015.8
20260504001957 72 358 0.0 0.0 0.00 0.23 0.10 100 1015.9
20260504001457 75 358 0.0 0.0 0.00 0.23 0.10 100 1015.8
20260504000957 75 358 0.0 0.0 0.00 0.23 0.10 100 1015.8
20260504000457 73 358 0.0 0.0 0.00 0.23 0.10 100 1015.7
20260504000142 74 358 0.0 0.0 0.00 0.23 0.10 100 1015.8
20260503235957 74 358 0.0 0.0 0.00 0.23 0.10 100 1015.7
20260503235457 74 358 0.0 0.0 0.00 0.23 0.10 100 1015.8
20260503235419 75 358 0.0 0.0 0.00 0.23 0.10 100 1015.7
20260503234957 75 358 0.0 0.0 0.00 0.23 0.10 100 1015.7
20260503234457 74 358 0.0 0.0 0.00 0.23 0.10 100 1015.6
20260503234232 75 358 0.0 0.0 0.00 0.23 0.10 100 1015.6
20260503234130 75 358 0.0 0.0 0.00 0.23 0.10 100 1015.5
20260503233957 75 358 0.0 0.0 0.00 0.23 0.10 100 1015.6
20260503233457 75 358 0.0 0.0 0.00 0.23 0.10 100 1015.5
20260503233137 75 358 0.0 0.0 0.00 0.23 0.10 100 1015.5
20260503232957 75 358 0.0 0.0 0.00 0.23 0.10 100 1015.6
20260503232457 75 358 0.0 0.0 0.00 0.23 0.10 100 1015.5
20260503232336 76 358 0.0 0.0 0.00 0.23 0.10 100 1015.5
20260503231957 76 358 0.0 0.0 0.00 0.23 0.10 100 1015.5
20260503231936 75 358 0.0 0.0 0.00 0.23 0.10 100 1015.4
20260503231811 76 358 0.0 0.0 0.00 0.24 0.10 100 1015.5
20260503231457 75 358 0.0 0.0 0.00 0.23 0.10 100 1015.4
20260503230957 76 358 0.0 0.0 0.00 0.23 0.10 100 1015.5
20260503230457 76 358 0.0 0.0 0.00 0.24 0.10 100 1015.5
20260503230110 77 358 0.0 0.0 0.00 0.24 0.10 100 1015.5
20260503225957 76 358 0.0 0.0 0.00 0.24 0.10 100 1015.5
20260503225457 77 358 0.0 0.0 0.00 0.24 0.10 100 1015.5
20260503224957 77 358 0.0 0.0 0.00 0.24 0.10 100 1015.5
20260503224457 77 358 0.0 0.0 0.00 0.24 0.10 100 1015.4
20260503223957 77 358 0.0 0.0 0.00 0.24 0.10 100 1015.3
20260503223457 77 358 0.0 0.0 0.00 0.24 0.10 100 1015.3
20260503222957 76 358 0.0 0.0 0.00 0.24 0.10 100 1015.3
20260503222743 76 358 0.0 0.0 0.00 0.24 0.10 100 1015.5
20260503222636 78 358 0.0 0.0 0.00 0.24 0.10 100 1015.4
20260503222457 77 358 0.0 0.0 0.00 0.24 0.10 100 1015.4
20260503222003 76 358 0.0 0.0 0.00 0.24 0.10 100 1015.5
20260503221957 78 358 0.0 0.0 0.00 0.24 0.10 100 1015.4
20260503221457 76 358 0.0 0.0 0.00 0.24 0.10 100 1015.5
20260503220957 77 358 0.0 0.0 0.00 0.24 0.10 100 1015.4
20260503220457 77 358 0.0 0.0 0.00 0.24 0.10 100 1015.4
20260503215957 77 358 0.0 0.0 0.00 0.24 0.10 100 1015.4
20260503215457 77 358 0.0 0.0 0.00 0.24 0.10 100 1015.4
20260503214957 77 358 0.0 0.0 0.00 0.24 0.10 100 1015.4
20260503214457 77 358 0.0 0.0 0.00 0.24 0.10 100 1015.5
20260503213957 77 358 0.0 0.0 0.00 0.24 0.10 100 1015.4
20260503213457 77 358 0.0 0.0 0.00 0.24 0.10 100 1015.4
20260503212957 77 358 0.0 0.0 0.00 0.24 0.10 100 1015.4
20260503212838 77 358 0.0 0.0 0.00 0.24 0.10 100 1015.4
20260503212457 77 358 0.0 0.0 0.00 0.24 0.10 100 1015.4
20260503211958 78 358 0.0 0.0 0.00 0.24 0.10 100 1015.4
20260503211647 78 358 0.0 0.0 0.00 0.24 0.10 100 1015.3
20260503211458 78 358 0.0 0.0 0.00 0.24 0.10 100 1015.3
20260503211059 76 358 0.0 0.0 0.00 0.24 0.10 100 1015.4
20260503210958 76 358 0.0 0.0 0.00 0.24 0.10 100 1015.4
20260503210648 76 358 0.0 0.0 0.00 0.26 0.10 100 1015.4
20260503210458 76 358 0.0 0.0 0.00 0.26 0.10 100 1015.4
20260503205958 77 358 0.0 0.0 0.00 0.26 0.10 100 1015.4
20260503205458 78 358 0.0 0.0 0.00 0.26 0.10 100 1015.5
20260503205014 77 358 0.0 0.0 0.00 0.26 0.10 100 1015.6
20260503204958 78 358 0.0 0.0 0.00 0.26 0.10 100 1015.5
20260503204458 77 358 0.0 0.0 0.00 0.26 0.10 100 1015.6
20260503204126 78 358 0.0 0.0 0.00 0.26 0.10 100 1015.7
20260503203958 77 358 0.0 0.0 0.00 0.26 0.10 100 1015.7
20260503203458 78 358 0.0 0.0 0.00 0.26 0.10 100 1015.7
20260503202958 77 358 0.0 0.0 0.00 0.26 0.10 100 1015.7
20260503202458 77 358 0.0 0.0 0.00 0.26 0.10 100 1015.8
20260503202141 78 358 0.0 0.0 0.00 0.26 0.10 100 1015.8
20260503201958 76 358 0.0 0.0 0.00 0.26 0.10 100 1015.8
20260503201458 78 358 0.0 0.0 0.00 0.26 0.10 100 1015.8
20260503200958 78 358 0.0 0.0 0.00 0.26 0.10 100 1015.8
20260503200458 77 358 0.0 0.0 0.00 0.34 0.10 100 1015.9
20260503200356 76 358 0.0 0.0 0.00 0.34 0.10 100 1016.0
20260503195958 76 358 0.0 0.0 0.00 0.34 0.10 100 1016.0
20260503195458 77 358 0.0 0.0 0.00 0.34 0.10 100 1016.0
20260503194958 76 358 0.0 0.0 0.00 0.34 0.10 100 1016.1
20260503194458 76 358 0.0 0.0 0.00 0.34 0.10 100 1016.2
20260503193958 78 358 0.0 0.0 0.00 0.34 0.10 100 1016.3
20260503193458 78 358 0.0 0.0 0.00 0.34 0.10 100 1016.4
20260503192958 76 358 0.0 0.0 0.00 0.34 0.10 100 1016.5
20260503192543 77 358 0.0 0.0 0.00 0.34 0.10 100 1016.6
20260503192458 77 358 0.0 0.0 0.00 0.34 0.10 100 1016.5
20260503192232 77 358 0.0 0.0 0.00 0.34 0.10 100 1016.6
20260503192149 77 358 0.0 0.0 0.00 0.34 0.10 100 1016.6
20260503191958 77 358 0.0 0.0 0.00 0.34 0.10 100 1016.6
20260503191458 75 358 0.0 0.0 0.00 0.34 0.10 100 1016.8
20260503190958 77 358 0.0 0.0 0.00 0.34 0.10 100 1016.9
20260503190936 76 358 0.0 0.0 0.00 0.34 0.10 100 1016.9
20260503190458 76 358 0.0 0.0 0.00 0.34 0.10 100 1016.9
20260503185958 75 358 0.0 0.0 0.00 0.34 0.10 100 1017.1
20260503185858 77 358 0.0 0.0 0.00 0.34 0.10 100 1017.1
20260503185458 77 358 0.0 0.0 0.00 0.34 0.10 100 1017.1
20260503185133 75 358 0.0 0.0 0.00 0.34 0.10 100 1017.2
20260503184958 75 358 0.0 0.0 0.00 0.34 0.10 100 1017.2
20260503184458 78 358 0.0 0.0 0.00 0.34 0.10 100 1017.2
20260503184431 75 358 0.0 0.0 0.00 0.34 0.10 100 1017.3
20260503183958 75 358 0.0 0.0 0.00 0.34 0.10 100 1017.3
20260503183458 76 358 0.0 0.0 0.00 0.34 0.10 100 1017.4
20260503183317 75 358 0.0 0.0 0.00 0.34 0.10 100 1017.5
20260503182958 75 358 0.0 0.0 0.00 0.34 0.10 100 1017.5
20260503182458 75 358 0.0 0.0 0.00 0.34 0.10 100 1017.6
20260503182056 75 358 0.0 0.0 0.00 0.34 0.10 100 1017.5
20260503181958 75 358 0.0 0.0 0.00 0.34 0.10 100 1017.5
20260503181458 75 358 0.0 0.0 0.00 0.34 0.10 100 1017.5
20260503180958 76 358 0.0 0.0 0.00 0.34 0.10 100 1017.6
20260503180458 75 358 0.0 0.0 0.00 0.34 0.10 100 1017.6
20260503180131 76 358 0.0 0.0 0.00 0.34 0.10 100 1017.8
20260503180040 75 358 0.0 0.0 0.00 0.34 0.10 100 1017.7
20260503175958 75 358 0.0 0.0 0.00 0.34 0.10 100 1017.7
20260503175458 76 358 0.0 0.0 0.00 0.34 0.10 100 1017.8
20260503175151 74 358 0.0 0.0 0.00 0.34 0.10 100 1017.9
20260503174958 74 358 0.0 0.0 0.00 0.34 0.10 100 1017.9
20260503174458 74 358 0.0 0.0 0.00 0.34 0.10 100 1018.0
20260503173958 75 358 0.0 0.0 0.00 0.34 0.10 100 1018.0
20260503173458 74 358 0.0 0.0 0.00 0.34 0.10 100 1018.0
20260503172958 73 358 0.0 0.0 0.00 0.34 0.10 100 1018.0
20260503172519 72 358 0.0 0.0 0.00 0.34 0.10 100 1018.2
20260503172458 74 358 0.0 0.0 0.00 0.34 0.10 100 1018.1
20260503171958 72 358 0.0 0.0 0.00 0.34 0.10 100 1018.2
20260503171938 73 358 0.0 0.0 0.00 0.34 0.10 100 1018.2
20260503171459 73 358 0.0 0.0 0.00 0.34 0.10 100 1018.2
20260503171121 73 358 0.0 0.0 0.00 0.34 0.10 100 1018.3
20260503170959 73 358 0.0 0.0 0.00 0.34 0.10 100 1018.1
20260503170459 73 358 0.0 0.0 0.00 0.34 0.10 100 1018.3
20260503170339 74 358 0.0 0.0 0.00 0.34 0.10 100 1018.3